Location: New Mesquite
(33.1168°N, 96.4336°W)
Time: 14:14:43
(UTC+00:00)

Cosmos 1812 - Visible Passes

Search period start: 01 July 2022 00:00
Search period end: 11 July 2022 00:00
Orbit: 511 x 514 km, 82.5° (Epoch: 30 June)

Date Brightness Start Highest point End Pass type
(mag) Time Alt. Az. Time Alt. Az. Time Alt. Az.
01 Jul 4.8 08:40:52 10° NNW 08:42:10 19° NW 08:42:10 19° NW visible
02 Jul 4.9 08:24:41 10° NNW 08:25:58 19° NNW 08:25:58 19° NNW visible
03 Jul 5.0 08:08:34 10° NNW 08:09:48 19° NNW 08:09:48 19° NNW visible
04 Jul 5.2 07:52:29 10° N 07:53:39 19° N 07:53:39 19° N visible
05 Jul 5.4 07:36:27 10° N 07:37:30 18° N 07:37:30 18° N visible
06 Jul 5.5 07:20:27 10° N 07:21:22 17° N 07:21:22 17° N visible
07 Jul 5.7 07:04:30 10° N 07:05:15 15° NNE 07:05:15 15° NNE visible
08 Jul 5.8 06:48:35 10° NNE 06:49:09 13° NNE 06:49:09 13° NNE visible
09 Jul 5.9 06:32:44 10° NNE 06:33:03 12° NNE 06:33:03 12° NNE visible
10 Jul 6.0 06:16:57 10° NNE 06:16:57 10° NNE 06:16:57 10° NNE visible
